Voltar ao catálogo

USA 386

AtivoMilitarVLEO
NORAD 60169·PAYLOAD·🇺🇸 United States

Lançado Jun 29, 2024 de Vandenberg Space Force Base

Loading…

Próximas Passagens (próximas 24 horas)

TLE

ObsoletoSource: Mike McCants

Época: Aug 24, 2026, 00:53 UTC

1 60169U 24121M   26236.03709943 0.00000000  00000-0  00000-0 0    09
2 60169  70.0230 216.5874 0003000 260.8088  99.1912 14.96713199    05

Acompanhe USA 386 em tempo real com AllMySat

Download on the App Store